Date,TemperatureHighF,TemperatureAvgF,TemperatureLowF,DewpointHighF,DewpointAvgF,DewpointLowF,HumidityHigh,HumidityAvg,HumidityLow,PressureMaxIn,PressureMinIn,WindSpeedMaxMPH,WindSpeedAvgMPH,GustSpeedMaxMPH,PrecipitationSumIn
2013-8-1,107.2,89.5,72.0,68.8,65.5,63.1,79,48,26,29.92,29.76,8,2,0,0.00
2013-8-2,105.1,89.3,75.0,67.6,63.5,58.4,71,46,23,29.84,29.73,9,3,0,0.00
2013-8-3,104.5,88.8,74.3,68.4,63.9,59.0,72,46,26,29.89,29.77,9,4,0,0.00
2013-8-4,103.6,88.7,75.2,69.8,66.4,62.2,78,50,29,29.96,29.77,8,4,0,0.00
2013-8-5,106.3,90.7,76.5,68.8,63.6,57.5,71,44,22,29.89,29.70,12,4,0,0.00
2013-8-6,107.1,91.6,76.3,69.6,65.2,59.4,77,45,24,29.80,29.63,13,4,0,0.00
2013-8-7,109.9,92.0,77.4,70.0,64.4,60.1,70,43,21,29.77,29.61,11,5,0,0.00
2013-8-8,107.1,89.4,76.5,69.0,63.3,52.8,72,46,22,29.78,29.62,11,3,0,0.00
2013-8-9,107.2,90.5,77.4,71.9,63.3,57.8,83,44,21,29.87,29.72,10,3,0,0.02
2013-8-10,100.4,86.7,71.4,71.4,66.3,56.6,83,52,36,29.96,29.83,9,3,0,0.00
2013-8-11,104.0,86.8,72.1,70.6,67.1,64.2,85,55,30,29.96,29.81,7,2,0,0.00
2013-8-12,102.9,87.1,71.1,70.1,66.0,61.6,88,54,29,29.95,29.79,10,3,0,0.00
2013-8-13,105.4,89.4,74.8,70.5,65.1,60.0,78,48,23,29.91,29.75,8,3,0,0.00
2013-8-14,93.7,83.9,73.4,71.4,67.5,63.1,80,59,39,29.92,29.80,10,4,0,0.00
2013-8-15,95.9,79.3,70.5,73.7,69.7,67.1,95,75,41,29.91,29.81,8,3,0,0.73
2013-8-16,90.5,76.4,66.4,71.5,66.0,62.6,99,74,41,29.99,29.83,12,4,0,0.02
2013-8-17,95.4,80.4,66.4,69.1,62.2,57.9,86,57,30,29.98,29.83,10,4,0,0.00
2013-8-18,96.6,81.4,64.6,62.5,58.8,57.1,82,50,29,29.97,29.84,9,3,0,0.00
2013-8-19,99.1,82.7,67.3,63.5,60.3,57.2,75,50,29,29.94,29.78,7,2,0,0.00
2013-8-20,100.2,84.3,71.6,65.0,59.2,52.9,71,46,25,29.91,29.81,10,4,0,0.00
2013-8-21,98.8,83.1,68.2,69.3,65.0,56.3,88,57,31,29.97,29.82,10,3,0,0.00
2013-8-22,102.0,87.3,72.0,70.9,65.4,60.0,83,52,28,29.97,29.78,8,3,0,0.00
2013-8-23,99.9,81.5,71.4,73.0,68.3,63.6,88,66,36,29.92,29.80,7,2,0,0.14
2013-8-24,100.6,82.8,68.4,75.5,67.5,63.4,94,64,30,29.95,29.81,8,2,0,0.13
2013-8-25,98.6,86.0,71.6,71.6,65.9,62.4,85,54,32,30.01,29.88,13,4,0,0.00
2013-8-26,94.5,83.2,72.5,69.5,66.3,63.5,83,58,38,30.04,29.90,10,5,0,0.00
2013-8-27,85.8,74.4,69.6,74.0,69.9,66.5,95,86,64,30.01,29.89,9,3,0,1.32
2013-8-28,99.5,81.6,67.5,72.8,66.3,61.9,99,65,32,30.01,29.88,9,2,0,0.00
2013-8-29,101.7,84.2,69.4,71.4,66.0,62.2,89,58,29,30.00,29.84,8,2,0,0.00
2013-8-30,102.7,85.3,68.4,69.4,65.2,60.9,95,57,28,29.93,29.76,9,2,0,0.00
2013-8-31,104.4,87.2,70.7,66.8,63.6,59.8,77,49,24,29.83,29.67,10,2,0,0.00